EW0159 Weather Reports


Display with metric or nautical units.
time (UTC)temp
F
wind
direction
speed
MPH
gust
MPH
rain 1hr
in
rain 24hr
in
rain mn
in
humidity
%
barometer
mb
20260508050014 55 28 0.0 2.0 0.00 0.00 0.00 79 1016.4
20260508044515 56 94 1.0 2.0 0.00 0.00 0.00 78 1016.4
20260508043017 57 68 1.0 2.0 0.00 0.00 0.00 75 1016.4
20260508041517 58 68 0.0 1.0 0.00 0.00 0.00 73 1016.3
20260508040013 60 68 0.0 2.0 0.00 0.00 0.00 71 1016.0
20260508034516 61 68 0.0 2.0 0.00 0.00 0.00 67 1016.0
20260508033012 62 18 0.0 3.0 0.00 0.00 0.00 63 1015.8
20260508031512 64 343 1.0 5.0 0.00 0.00 0.00 61 1015.8
20260508030010 64 50 2.0 5.0 0.00 0.00 0.00 59 1015.6
20260508024525 65 32 2.0 4.0 0.00 0.00 0.00 59 1015.7
20260508023008 66 18 2.0 5.0 0.00 0.00 0.00 59 1015.7
20260508021508 66 82 2.0 5.0 0.00 0.00 0.00 57 1015.7
20260508020007 67 22 2.0 8.0 0.00 0.00 0.00 54 1015.8
20260508014506 68 92 2.0 4.0 0.00 0.00 0.00 52 1015.8
20260508013004 68 78 1.0 4.0 0.00 0.00 0.00 49 1016.0
20260508011503 69 163 2.0 5.0 0.00 0.00 0.00 49 1016.2
20260508010005 69 144 2.0 6.0 0.00 0.00 0.00 50 1016.2
20260508004603 69 183 3.0 9.0 0.00 0.00 0.00 50 1016.2
20260508003059 71 213 1.0 4.0 0.00 0.00 0.00 50 1016.3
20260508001558 71 229 2.0 6.0 0.00 0.00 0.00 52 1016.4
20260508000054 70 132 3.0 7.0 0.00 0.00 0.00 53 1016.5
20260507234555 69 130 4.0 8.0 0.00 0.00 0.00 53 1016.6
20260507233058 69 202 3.0 7.0 0.00 0.00 0.00 55 1016.7
20260507231549 69 184 2.0 9.0 0.00 0.00 0.00 52 1016.9
20260507224542 69 204 4.0 7.0 0.00 0.00 0.00 53 1017.4
20260507223039 67 200 2.0 6.0 0.00 0.00 0.00 52 1017.7
20260507221541 68 184 3.0 7.0 0.00 0.00 0.00 53 1017.9
20260507220033 67 225 3.0 6.0 0.00 0.00 0.00 56 1018.2
20260507214535 66 196 4.0 7.0 0.00 0.00 0.00 54 1018.3
20260507213032 67 232 3.0 8.0 0.00 0.00 0.00 50 1018.4
20260507211527 66 244 2.0 6.0 0.00 0.00 0.00 56 1018.6
20260507210026 64 188 2.0 4.0 0.00 0.00 0.00 53 1018.8
20260507204522 64 157 2.0 6.0 0.00 0.00 0.00 53 1019.1
20260507203036 64 169 0.0 7.0 0.00 0.00 0.00 58 1019.2
20260507201517 63 183 2.0 7.0 0.00 0.00 0.00 57 1019.5
20260507200011 62 155 3.0 7.0 0.00 0.00 0.00 58 1019.7
20260507194516 61 178 1.0 7.0 0.00 0.00 0.00 60 1019.8
20260507193008 61 50 2.0 7.0 0.00 0.00 0.00 63 1019.9
20260507191508 60 175 2.0 8.0 0.00 0.00 0.00 65 1020.1
20260507190008 60 97 1.0 7.0 0.00 0.00 0.00 65 1020.1
20260507184600 60 139 1.0 10.0 0.00 0.00 0.00 69 1020.3
20260507183058 60 189 3.0 7.0 0.00 0.00 0.00 67 1020.4
20260507181555 59 156 2.0 6.0 0.00 0.00 0.00 68 1020.5
20260507180051 58 107 1.0 3.0 0.00 0.00 0.00 69 1020.6
20260507174551 58 126 0.0 7.0 0.00 0.00 0.00 70 1020.7
20260507173120 57 175 2.0 5.0 0.00 0.00 0.00 71 1020.9
20260507171545 56 152 2.0 6.0 0.00 0.00 0.00 72 1021.0
20260507170044 56 198 2.0 5.0 0.00 0.00 0.00 73 1020.9
20260507164542 56 167 2.0 5.0 0.00 0.00 0.00 74 1020.9
20260507163040 54 227 3.0 5.0 0.00 0.00 0.00 75 1021.0
20260507161545 53 278 2.0 4.0 0.00 0.00 0.00 76 1021.0
20260507160038 53 218 1.0 4.0 0.00 0.00 0.00 75 1021.0
20260507154532 53 43 1.0 3.0 0.00 0.00 0.00 77 1021.0
20260507153033 52 188 0.0 2.0 0.00 0.00 0.00 77 1021.0
20260507151532 52 295 0.0 2.0 0.00 0.00 0.00 78 1021.1
20260507150037 51 295 0.0 2.0 0.00 0.00 0.00 80 1021.0
20260507144531 51 217 0.0 3.0 0.00 0.00 0.00 80 1021.0
20260507143030 50 217 0.0 3.0 0.00 0.00 0.00 81 1020.9
20260507141544 50 273 0.0 3.0 0.00 0.00 0.00 82 1020.9
20260507140027 50 229 0.0 3.0 0.00 0.00 0.00 82 1020.8
20260507134525 49 276 0.0 2.0 0.00 0.00 0.00 83 1020.7
20260507133033 49 276 0.0 2.0 0.00 0.00 0.00 83 1020.5
20260507131526 50 355 0.0 2.0 0.00 0.00 0.00 83 1020.6
20260507130021 50 355 0.0 1.0 0.00 0.00 0.00 82 1020.5
20260507124524 50 355 0.0 3.0 0.00 0.00 0.00 80 1020.5
20260507123026 50 342 0.0 2.0 0.00 0.00 0.00 80 1020.5
20260507121518 51 340 0.0 2.0 0.00 0.00 0.00 80 1020.6
20260507120015 51 344 0.0 3.0 0.00 0.00 0.00 79 1020.6
20260507114513 51 19 0.0 2.0 0.00 0.00 0.00 79 1020.8
20260507113013 51 21 0.0 1.0 0.00 0.00 0.00 81 1020.9
20260507111511 51 130 0.0 1.0 0.00 0.00 0.00 81 1020.8
20260507110009 51 130 0.0 1.0 0.00 0.00 0.00 82 1020.9
20260507104508 52 130 0.0 1.0 0.00 0.00 0.00 82 1021.0
20260507103006 52 142 0.0 1.0 0.00 0.00 0.00 81 1021.1
20260507101507 52 229 0.0 0.0 0.00 0.00 0.00 81 1021.2
20260507100003 52 229 0.0 0.0 0.00 0.00 0.00 81 1021.3
20260507094502 52 229 0.0 1.0 0.00 0.00 0.00 81 1021.3
20260507093001 52 229 0.0 0.0 0.00 0.00 0.00 82 1021.4
20260507091601 52 229 0.0 0.0 0.00 0.00 0.00 82 1021.5
20260507090105 52 229 0.0 0.0 0.00 0.00 0.00 81 1021.6
20260507084601 52 229 0.0 1.0 0.00 0.00 0.00 81 1021.5
20260507083057 52 230 0.0 0.0 0.00 0.00 0.00 82 1021.6
20260507081556 52 230 0.0 0.0 0.00 0.00 0.00 82 1021.6
20260507080054 52 230 0.0 1.0 0.00 0.00 0.00 82 1021.5
20260507074554 52 244 0.0 2.0 0.00 0.00 0.00 82 1021.5
20260507073102 52 319 0.0 0.0 0.00 0.00 0.00 82 1021.5
20260507071551 52 319 0.0 1.0 0.00 0.00 0.00 81 1021.4
20260507070056 53 319 0.0 1.0 0.00 0.00 0.00 81 1021.4
20260507064553 53 319 0.0 2.0 0.00 0.00 0.00 80 1021.4
20260507063046 53 319 0.0 3.0 0.00 0.00 0.00 80 1021.5
20260507061545 53 56 0.0 1.0 0.00 0.00 0.00 80 1021.4
20260507060048 53 57 0.0 5.0 0.00 0.00 0.00 80 1021.5
20260507054543 53 309 1.0 5.0 0.00 0.00 0.00 81 1021.5
20260507053043 53 259 0.0 4.0 0.00 0.00 0.00 81 1021.4
20260507051541 54 344 0.0 5.0 0.00 0.00 0.00 81 1021.4